#timestamp,LO_Frequency,Hit,StdDev 
1634216415.6,286046999.7,N
1634216435.5,286046998.5,N
1634216455.3,286046998.6,N
1634216475.1,286047001.0,N
1634216495.9,286046999.1,N
1634216515.7,286046998.9,N
1634216535.6,286046998.8,N
1634216555.4,286046998.7,N
1634216575.2,286046999.1,N
1634216595.1,286046997.0,Y
1634216596.0,286046997.0,P
1634216615.8,286046999.0,N
1634216635.6,286047001.1,N
1634216655.5,286047000.0,N
1634216675.3,286047000.5,N
1634216695.2,286047002.4,N
1634216715.9,286046999.7,N
1634216735.7,286047002.6,N
1634216755.6,286047000.4,N
1634216775.4,286047002.8,N
1634216795.2,286047000.2,N
1634216815.1,286047002.4,N
1634216816.0,286047002.4,N
1634216835.8,286047002.3,N
1634216855.7,286047001.7,N
1634216875.5,286047001.6,N
1634216895.3,286047001.8,N
1634216915.2,286047002.0,N
1634216935.0,286047001.3,N
1634216935.9,286047001.3,N
1634216955.8,286047001.6,N
1634216975.6,286047002.8,N
1634216995.4,286047002.4,N
1634217015.3,286047002.3,N
1634217035.1,286046999.7,N
1634217055.8,286047002.7,N
1634217075.7,286047002.2,N
1634217095.5,286047001.9,N
1634217115.4,286047001.6,N
1634217135.2,286047001.5,N
1634217155.0,286047002.6,N
1634217155.9,286047002.6,N
1634217175.8,286047002.1,N
1634217195.6,286047003.6,Y
1634217215.5,286047001.9,P
1634217235.3,286047001.4,P
1634217255.1,286047002.0,P
1634217275.9,286047002.6,Y
1634217295.7,286046998.9,P
1634217315.5,286046999.3,N
1634217335.4,286046997.0,N
1634217355.2,286046997.2,N
1634217375.1,286046997.2,N
1634217376.0,286046997.2,N
1634217395.8,286046996.7,N
1634217415.6,286046997.4,N
1634217435.5,286046998.0,N
1634217455.3,286046997.5,N
1634217475.1,286046995.6,Y
1634217495.9,286046999.3,P
1634217515.7,286046999.4,N
1634217535.6,286046999.5,N
1634217555.4,286046997.2,Y
1634217575.2,286046998.4,P
1634217595.1,286046998.9,P
1634217596.0,286046998.9,P
1634217615.8,286046999.4,N
1634217635.7,286046999.2,N
1634217655.5,286046999.6,N
1634217675.3,286046998.7,Y
1634217695.2,286047002.8,P
1634217715.0,286047000.6,N
1634217715.9,286047000.6,N
1634217735.7,286046998.2,N
1634217755.6,286047001.1,N
1634217775.4,286046998.6,N
1634217795.3,286046998.9,N
1634217815.1,286046998.2,N
1634217816.0,286046998.2,N
1634217835.8,286047001.2,N
1634217855.7,286047001.2,N
1634217875.5,286047000.8,N
1634217895.4,286047000.3,N
1634217915.2,286047000.3,N
1634217935.0,286047002.4,N
1634217935.9,286047002.4,N
1634217955.8,286047002.4,N
1634217975.6,286047001.4,N
1634217995.4,286047001.9,N
1634218015.3,286047001.4,N
1634218035.1,286047001.4,N
1634218055.9,286047002.5,N
1634218075.7,286047002.4,N
1634218095.5,286047002.6,N
1634218115.4,286047002.1,N
1634218135.2,286047002.8,N
1634218155.0,286046999.7,N
1634218155.9,286046999.7,N
1634218175.8,286047000.1,N
1634218195.6,286047002.5,N
1634218215.5,286047000.2,N
1634218235.3,286047001.0,N
1634218255.1,286047000.6,N
1634218275.9,286047001.6,N
1634218295.7,286047002.5,N
1634218315.5,286047002.7,N
1634218335.4,286047002.7,N
1634218355.2,286047000.0,N
1634218375.1,286046999.9,N
1634218376.0,286046999.9,N
1634218395.8,286047001.2,N
1634218415.6,286047000.3,N
1634218435.5,286047002.7,N
1634218455.3,286047002.1,N
1634218475.1,286047000.2,N
1634218495.9,286047002.3,N
1634218515.7,286047002.2,N
1634218535.6,286047002.4,N
1634218555.4,286047001.9,N
1634218575.2,286047000.3,N
1634218595.1,286047001.1,N
1634218596.0,286047001.1,N
1634218615.8,286047000.5,N
1634218635.7,286047002.3,N
1634218655.5,286047002.8,N
1634218675.3,286047002.6,N
1634218695.2,286047002.1,N
1634218715.0,286047002.3,N
1634218715.9,286047002.3,N
1634218735.8,286046999.7,N
1634218755.6,286047002.3,N
1634218775.4,286047005.9,Y
1634218795.3,286047001.8,P
1634218815.1,286047002.3,P
1634218835.9,286047002.1,P
1634218855.7,286047002.3,Y
1634218875.5,286046998.5,P
1634218895.4,286046999.3,N
1634218915.2,286046997.0,N
1634218935.0,286046999.5,N
1634218935.9,286046999.5,N
1634218955.8,286046999.1,N
1634218975.6,286046996.6,N
1634218995.5,286046998.3,N
1634219015.3,286046998.9,N
1634219035.1,286046999.0,N
1634219055.9,286046997.0,N
1634219075.7,286046997.3,N
1634219095.5,286046999.0,N
1634219115.4,286046994.9,Y
1634219135.2,286046996.5,P
1634219155.1,286046998.4,N
1634219156.0,286046998.4,N
1634219175.8,286046999.5,N
1634219195.6,286046996.5,Y
1634219215.5,286046998.6,P
1634219235.3,286047001.2,P
1634219255.2,286046998.4,N
1634219275.9,286046998.8,N
1634219295.7,286046997.2,N
1634219315.6,286046994.9,Y
1634219335.4,286046998.3,P
1634219355.2,286046998.1,P
1634219375.1,286047000.0,N
1634219376.0,286047000.0,N
1634219395.8,286047000.7,N
1634219415.7,286046998.2,N
1634219435.5,286047000.7,N
1634219455.3,286046999.3,N
1634219475.2,286046998.7,N
1634219495.0,286046996.6,Y
1634219495.9,286046996.6,P
1634219515.8,286046998.8,N
1634219535.6,286046996.9,N
1634219555.4,286046997.4,N
1634219575.3,286046997.1,N
1634219595.1,286046997.7,N
1634219615.8,286046997.4,N
1634219635.7,286046998.0,N
1634219655.5,286046995.0,Y
1634219675.4,286046999.0,P
1634219695.2,286046998.1,N
1634219715.0,286047000.8,N
1634219715.9,286047000.8,N
1634219735.8,286046999.8,N
1634219755.6,286047000.0,N
1634219775.4,286047002.4,N
1634219795.3,286047002.1,N
1634219815.1,286047001.5,N
1634219835.9,286047001.6,N
1634219855.7,286047001.7,N
1634219875.5,286047001.5,N
1634219895.4,286047001.7,N
1634219915.2,286047001.9,N
1634219935.1,286047002.3,N
1634219936.0,286047002.3,N
1634219955.8,286047000.0,N
1634219975.6,286047000.0,N
1634219995.5,286047000.3,N
